Location: Warner Observatory
(35.1353°N, 89.5455°W)
Time: 08:37:10
(UTC-06:00)

Envisat - Pass Details

Date: 23 January 2020
Orbit: 764 x 766 km, 98.1° (Epoch: 28 February)

Event Time Altitude Azimuth Distance (km) Brightness Sun altitude
Rises 17:39:50 0° 160° (SSE) 3,217 6.2 -5.1°
Reaches altitude 10° 17:42:09 10° 158° (SSE) 2,295 5.5 -5.6°
Maximum altitude 17:47:10 69° 75° (ENE) 818 3.0 -6.6°
Drops below altitude 10° 17:52:13 10° 353° (N) 2,309 5.4 -7.5°
Sets 17:54:32 0° 351° (N) 3,239 6.1 -8.0°
